Skagway, AK

5:16 AM AKDT on April 25, 2017 (GMT -0800)
Skagway

Weather History for PAGY - December, 2013

Change the Weather History Date:

Sunday, December 29, 2013

  Actual Average Record
Temperature  
Mean Temperature 24 °F -  
Max Temperature 26 °F 28 °F 44 °F (2001)
Min Temperature 21 °F 20 °F -3 °F (1968)
Degree Days  
Heating Degree Days 42    
Moisture  
Dew Point 8 °F    
Average Humidity 53    
Maximum Humidity 55    
Minimum Humidity 51    
Precipitation  
Precipitation 0.00 in - - ()
Sea Level Pressure  
Sea Level Pressure 30.05 in    
Wind  
Wind Speed 23 mph (NE)    
Max Wind Speed 28 mph    
Max Gust Speed 41 mph    
Visibility 9 miles    
Events Snow    
Averages and records for this station are not official NWS values.
T = Trace of Precipitation, MM = Missing Value Source: NWS Daily Summary

Daily Weather History Graph

Daily Weather History Graph

Search for Another Location

Airport or City:

Trip Planner

Search our weather history database for the weather conditions in past years. The results will help you decide how hot, cold, wet, or windy it might be!

Date:

Astronomy

Dec. 29, 2013 Rise Set
Actual Time 8:59 AM AKST 3:07 PM AKST
Civil Twilight 8:04 AM AKST 4:03 PM AKST
Nautical Twilight 7:08 AM AKST 4:58 PM AKST
Astronomical Twilight 6:18 AM AKST 5:49 PM AKST
Moon 5:28 AM AKST (12/29) 1:12 PM AKST (12/29)
Length of Visible Light 7h 59m
Length of Day
6h 08m
Waning Crescent, 10% of the Moon is Illuminated
Dec 29
Waning Crescent
Jan 1
New
Jan 7
First Quarter
Jan 15
Full
Jan 23
Last Quarter

Hourly Weather History & Observations

Time (AKST) Temp. Windchill Dew Point Humidity Pressure Visibility Wind Dir Wind Speed Gust Speed Precip Events Conditions
12:53 AM 26.1 °F 12.0 °F 10.9 °F 53% 29.92 in 10.0 mi NE 20.7 mph 33.4 mph 0.00 in   Overcast
1:53 AM 25.0 °F 9.5 °F 9.0 °F 51% 29.93 in 10.0 mi NE 24.2 mph 33.4 mph N/A   Mostly Cloudy
3:53 AM 24.1 °F 9.4 °F 8.1 °F 51% 29.99 in 9.0 mi NE 20.7 mph 40.3 mph 0.00 in Snow Light Snow
4:53 AM 21.9 °F 4.5 °F 7.0 °F 53% 29.99 in 9.0 mi NE 27.6 mph 41.4 mph 0.00 in Snow Light Snow
5:53 AM 21.9 °F 4.5 °F 6.1 °F 51% 30.00 in 10.0 mi NE 27.6 mph 36.8 mph 0.00 in   Clear
6:53 AM 21.9 °F 4.8 °F 6.1 °F 51% 30.03 in 9.0 mi NE 26.5 mph 38.0 mph 0.00 in Snow Light Snow
7:53 AM 21.9 °F 6.2 °F 7.0 °F 53% 30.06 in 9.0 mi NE 21.9 mph 39.1 mph 0.00 in Snow Light Snow
8:53 AM 21.9 °F 6.2 °F 6.1 °F 51% 30.10 in 9.0 mi NE 21.9 mph 38.0 mph 0.00 in Snow Light Snow
9:53 AM 21.0 °F 4.6 °F 6.1 °F 53% 30.11 in 9.0 mi NE 23.0 mph 33.4 mph 0.00 in Snow Light Snow
10:53 AM 21.0 °F 3.6 °F 7.0 °F 55% 30.12 in 9.0 mi NE 26.5 mph 40.3 mph 0.00 in Snow Light Snow
11:53 AM 21.0 °F 5.4 °F 7.0 °F 55% 30.13 in 10.0 mi NE 20.7 mph 40.3 mph 0.00 in Snow Light Snow
12:53 PM 21.0 °F 3.3 °F 7.0 °F 55% 30.12 in 9.0 mi NE 27.6 mph 35.7 mph 0.00 in Snow Light Snow
1:53 PM 21.9 °F 5.5 °F 7.0 °F 53% 30.12 in 9.0 mi NE 24.2 mph 41.4 mph 0.00 in Snow Light Snow
2:53 PM 21.0 °F 3.6 °F 7.0 °F 55% 30.12 in 9.0 mi NE 26.5 mph 35.7 mph 0.00 in Snow Light Snow
3:53 PM 21.0 °F 5.0 °F 7.0 °F 55% 30.12 in 10.0 mi NE 21.9 mph 34.5 mph 0.00 in Snow Light Snow
4:53 PM 21.9 °F 6.2 °F 7.0 °F 53% 30.11 in 9.0 mi NE 21.9 mph 40.3 mph 0.00 in Snow Light Snow
5:53 PM 21.9 °F 6.9 °F 8.1 °F 55% 30.09 in 9.0 mi NE 19.6 mph 32.2 mph 0.00 in Snow Light Snow
6:53 PM 23.0 °F 7.6 °F 8.1 °F 53% 30.08 in 10.0 mi NE 21.9 mph 33.4 mph 0.00 in   Overcast
7:53 PM 23.0 °F 6.9 °F 9.0 °F 55% 30.05 in 10.0 mi NE 24.2 mph 34.5 mph 0.00 in   Overcast
8:53 PM 23.0 °F 6.6 °F 8.1 °F 53% 30.04 in 9.0 mi NE 25.3 mph 35.7 mph 0.00 in Snow Light Snow
9:53 PM 24.1 °F 9.4 °F 9.0 °F 53% 30.01 in 9.0 mi NE 20.7 mph 36.8 mph 0.00 in Snow Light Snow
10:53 PM 24.1 °F 8.0 °F 9.0 °F 53% 29.99 in 10.0 mi NE 25.3 mph 40.3 mph 0.00 in Snow Light Snow
11:53 PM 24.1 °F 9.4 °F 10.0 °F 55% 29.97 in 9.0 mi NE 20.7 mph 36.8 mph 0.00 in Snow Light Snow